Location: Nicosia
(35.1670°N, 33.3670°E)
Time: 00:56:57
(UTC+02:00)

BlueWalker 3 - Pass Details

Date: 10 December 2022
Orbit: 499 x 517 km, 53.2° (Epoch: 31 January)

Event Time Altitude Azimuth Distance (km) Brightness Sun altitude
Rises 18:57:05 0° 309° (NW) 2,614 6.1 -28.3°
Reaches altitude 10° 18:59:20 10° 304° (NW) 1,722 5.2 -28.8°
Enters shadow 19:01:02 24° 294° (WNW) 1,092 4.1 -29.1°
